Wind_Speed
12 12 12 12 13 13 13 13 12 11 11 11 12 12 12 12 11 11 10 9 8 7
13 12 11 12 13 14 14 14 13 13 13 13 13 13 13 12 12 11 11 10 10 9
14 13 11 12 12 13 14 14 14 14 14 13 13 13 13 13 13 13 13 12 12 11
16 14 14 14 14 14 15 15 15 15 15 15 15 15 14 14 14 14 13 13 14 13
18 17 16 17 17 17 16 16 17 17 17 17 17 17 16 16 16 16 16 15 16 15
21 19 19 20 20 19 18 17 18 18 18 18 18 18 17 17 17 16 16 16 16 15
23 20 21 22 22 22 21 20 19 19 19 19 19 18 18 17 16 16 15 15 15 15
23 21 23 25 25 25 26 24 22 21 19 20 20 19 18 18 17 17 17 16 16 15
24 22 24 26 27 27 28 27 25 23 21 20 19 19 19 20 20 20 20 20 19 18
22 24 25 27 28 29 28 27 27 25 23 21 20 19 19 19 21 21 21 20 20 19
22 25 26 27 28 28 27 28 28 26 24 22 20 19 21 22 22 22 22 22 21 20
24 25 24 24 25 25 28 30 28 25 24 23 21 21 22 21 21 20 20 20 19 19
23 28 32 32 31 29 26 27 26 25 24 22 23 20 20 18 19 21 22 22 22 21
25 25 21 21 18 15 16 18 20 20 21 21 22 20 19 19 21 23 23 24 24 23
Wind_Direction
299 309 316 324 329 330 329 328 323 315 305 299 299 297 294 293 293 294 296 295 291 290
285 294 306 319 328 329 324 320 316 314 310 303 298 294 290 288 286 284 284 284 284 287
272 281 295 308 316 323 323 318 313 309 306 302 298 294 291 291 288 288 286 283 281 282
265 274 285 296 301 309 317 317 312 305 301 299 295 290 287 283 279 277 275 273 273 272
258 267 277 286 291 296 304 310 309 305 300 295 292 289 287 284 281 279 277 274 273 274
254 263 275 282 286 288 293 298 301 300 298 295 292 288 284 282 279 278 278 277 276 277
255 264 276 281 284 286 286 288 291 293 294 293 289 287 285 283 281 280 279 279 279 279
257 264 274 282 287 287 284 282 282 284 288 288 286 283 280 280 281 282 281 281 280 280
259 268 279 284 287 286 283 280 277 278 281 282 280 275 277 279 279 279 279 281 278 278
264 274 280 285 284 284 284 281 275 275 278 281 278 274 273 277 279 279 278 278 279 279
275 282 287 286 284 286 287 281 274 271 272 273 270 267 275 278 274 271 271 273 274 276
285 287 288 287 286 288 288 281 273 269 268 268 265 270 277 275 276 275 274 276 277 277
289 288 287 283 279 275 276 282 276 269 267 264 270 276 272 270 270 274 276 275 274 272
296 296 296 287 282 288 282 275 276 283 279 276 274 272 266 266 269 271 273 272 271 271
Height
1501 1500 1499 1497 1494 1492 1490 1489 1487 1486 1485 1484 1483 1482 1481 1480 1479 1477 1476 1475 1474 1473
1498 1497 1496 1494 1492 1490 1488 1487 1485 1484 1483 1482 1481 1480 1479 1478 1477 1475 1474 1474 1472 1472
1494 1494 1493 1491 1490 1488 1486 1484 1483 1481 1480 1479 1478 1478 1476 1475 1474 1473 1473 1472 1471 1469
1491 1490 1489 1488 1487 1485 1483 1481 1479 1478 1477 1476 1475 1474 1473 1472 1471 1470 1469 1468 1467 1466
1486 1485 1485 1484 1483 1482 1480 1478 1476 1475 1474 1473 1471 1470 1469 1468 1467 1467 1466 1465 1464 1463
1481 1481 1481 1480 1479 1478 1476 1474 1473 1471 1470 1469 1468 1466 1465 1464 1463 1462 1461 1461 1461 1460
1476 1476 1476 1475 1474 1473 1471 1469 1468 1467 1466 1465 1464 1463 1462 1460 1459 1458 1458 1457 1456 1456
1471 1471 1471 1470 1469 1468 1466 1465 1464 1462 1461 1460 1460 1459 1458 1456 1455 1454 1454 1453 1452 1451
1467 1467 1467 1465 1463 1462 1460 1459 1458 1456 1455 1454 1453 1452 1452 1451 1450 1449 1448 1448 1447 1446
1461 1461 1460 1458 1456 1455 1454 1453 1453 1452 1450 1449 1448 1447 1446 1445 1444 1443 1443 1442 1441 1441
1454 1453 1452 1451 1450 1449 1448 1446 1445 1444 1443 1441 1441 1441 1440 1439 1437 1436 1436 1435 1434 1434
1446 1445 1445 1444 1443 1443 1442 1440 1437 1436 1436 1434 1434 1434 1432 1431 1431 1430 1430 1430 1429 1428
1441 1438 1438 1437 1435 1433 1432 1434 1433 1429 1428 1426 1426 1427 1426 1424 1423 1423 1423 1423 1423 1422
1435 1433 1431 1428 1427 1426 1426 1424 1426 1424 1424 1421 1421 1420 1419 1417 1415 1414 1413 1413 1414 1415